Volver al catálogo

THOR ABLESTAR DEB

ActivoPO
NORAD 1435·DEBRIS·🇺🇸 United States

Lanzado Jun 24, 1965 desde Vandenberg Space Force Base

Loading…

Próximos Pases (próximas 24 horas)

TLE

ActualizadoSource: Space-Track

Época: Sep 13, 2026, 14:43 UTC

1 01435U 65048D   26256.61353125  .00000466  00000-0  48352-3 0  9994
2 01435  89.8748 288.8849 0058277  51.3573  76.5801 13.73446879 39022

Sigue THOR ABLESTAR DEB en tiempo real con AllMySat

Download on the App Store